KLM704 SAEZ-SCEL

Flight info

Callsign KLM704
Flight time N/A
Altitude 38000
Route URINO1E URINO UL405 TOSOR UT687 UMKAL UMKAL7C
Aircraft B77W/H-SDE1E2E3FGHIJ2J3J4J5M1RWXY/LB1D1

Departure

Time 2026-04-29 19:55
Airport Ezeiza International Airport - Ministro Pistarini (SAEZ)

Arrival

Time N/A
Airport Comodoro Arturo Merino Benítez International Airport (SCEL)
Time Latitude Longitude Altitude Speed Heading
2026-04-29 19:53 -34.82327 -58.51792 81 ft 0 kts 187°
2026-04-29 19:54 -34.82468 -58.51828 89 ft 14 kts 193°
2026-04-29 19:54 -34.82516 -58.51849 89 ft 7 kts 217°
2026-04-29 19:54 -34.82523 -58.51906 89 ft 11 kts 281°
2026-04-29 19:55 -34.82463 -58.52223 86 ft 76 kts 282°
2026-04-29 19:55 -34.82293 -58.53164 91 ft 148 kts 282°
2026-04-29 19:55 -34.82067 -58.54520 475 ft 171 kts 280°
2026-04-29 19:55 -34.81812 -58.55971 1263 ft 169 kts 281°
2026-04-29 19:56 -34.81558 -58.57289 2322 ft 156 kts 279°
2026-04-29 19:56 -34.81304 -58.58614 2921 ft 172 kts 281°
2026-04-29 19:56 -34.81076 -58.60149 3151 ft 196 kts 266°
2026-04-29 19:56 -34.81620 -58.61760 3384 ft 224 kts 232°
2026-04-29 19:57 -34.82613 -58.63318 3747 ft 240 kts 248°
2026-04-29 19:57 -34.82838 -58.64668 4253 ft 245 kts 271°
2026-04-29 19:57 -34.82467 -58.67421 5284 ft 254 kts 277°
2026-04-29 19:57 -34.82143 -58.69531 6302 ft 254 kts 277°
2026-04-29 19:58 -34.81824 -58.71655 7193 ft 255 kts 277°
2026-04-29 19:58 -34.81514 -58.73769 8141 ft 255 kts 276°
2026-04-29 19:58 -34.81206 -58.75913 9023 ft 258 kts 276°
2026-04-29 19:58 -34.80901 -58.78071 9936 ft 259 kts 276°
2026-04-29 19:59 -34.80595 -58.80269 10590 ft 271 kts 276°
2026-04-29 19:59 -34.80273 -58.82652 10807 ft 300 kts 276°
2026-04-29 19:59 -34.79922 -58.85273 11022 ft 328 kts 276°
2026-04-29 19:59 -34.79542 -58.88098 11580 ft 344 kts 277°
2026-04-29 20:00 -34.79153 -58.90985 12533 ft 350 kts 277°
2026-04-29 20:00 -34.78755 -58.93926 13669 ft 352 kts 277°
2026-04-29 20:00 -34.78357 -58.96878 14644 ft 356 kts 277°
2026-04-29 20:00 -34.77955 -58.99869 15603 ft 360 kts 277°
2026-04-29 20:01 -34.77549 -59.02895 16583 ft 364 kts 277°
2026-04-29 20:01 -34.77139 -59.05946 17553 ft 368 kts 277°
2026-04-29 20:01 -34.76723 -59.09037 18446 ft 373 kts 277°
2026-04-29 20:01 -34.76303 -59.12162 19250 ft 377 kts 277°